Location: Cicognara
(44.9500°N, 10.4667°E)
Time: 09:26:30
(UTC+00:00)

NOSS 2-3 (C) - Pass Details

Date: 20 June 2021
Orbit: 555 x 1656 km, 63.4° (Epoch: 28 July)

Event Time Altitude Azimuth Distance (km) Brightness Sun altitude
Exits shadow 23:07:28 58° 130° (SE) 701 3.5 -21.6°
Maximum altitude 23:07:34 58° 123° (ESE) 702 3.6 -21.6°
Drops below altitude 10° 23:12:09 10° 44° (NE) 2,126 6.9 -21.6°
Sets 23:14:44 0° 41° (NE) 3,186 7.9 -21.6°
